Regional Weather Roundup
Issued by NWS

Home | Current Version | Previous Version | Graphics & Text | Print | Product List | Glossary On
Versions: 1 2 3 4 5 6 7 8 9 10 11 12 13 14 15 16 17 18 19 20 21 22 23 24 25 26 27 28 29 30 31 32 33 34 35 36 37 38 39 40 41 42 43 44 45 46 47 48 49 50
000
ASUS43 KMKX 281900
RWRWI

WISCONSIN REGIONAL WEATHER ROUNDUP
NATIONAL WEATHER SERVICE MILWAUKEE/SULLIVAN WI
200 PM CDT MON JUL 28 2014

NOTE: "FAIR" INDICATES FEW OR NO CLOUDS BELOW 12,000 FEET WITH NO
SIGNIFICANT WEATHER AND/OR OBSTRUCTIONS TO VISIBILITY.

WIZ001-002-006>008-014>016-023>028-282000-
NORTHWEST WISCONSIN

CITY           SKY/WX    TMP DP  RH WIND       PRES   REMARKS
SUPERIOR ARPT  MOSUNNY   74  54  50 NW10G17   30.15F
ASHLAND        MOSUNNY   74  55  51 W9        30.13F
HAYWARD        PTSUNNY   73  49  42 N8        30.16F
SIREN          PTSUNNY   72  49  43 NW3       30.18F
RICE LAKE      CLOUDY    70  51  51 NW7       30.18F
LADYSMITH      PTSUNNY   72  54  54 NW8       30.17S
EAU CLAIRE     NOT AVBL
MENOMONIE      MOCLDY    74  47  39 NW9       30.17F
NEW RICHMOND   PTSUNNY   72  49  44 N8        30.19S
OSCEOLA        PTSUNNY   72  53  51 NW7       30.21S
$$

WIZ003>005-009-010-017-018-282000-
NORTH CENTRAL WISCONSIN

CITY           SKY/WX    TMP DP  RH WIND       PRES   REMARKS
WOODRUFF       PTSUNNY   72  50  45 N16       30.12F
RHINELANDER    PTSUNNY   68  49  50 N8G18     30.12F
EAGLE RIVER    CLOUDY    68  47  48 N14       30.11S
LAND O LAKES   CLOUDY    68  48  49 N9        30.12S
PHILLIPS       PTSUNNY   70  54  56 N12G17    30.13F
TOMAHAWK       PTSUNNY   69  50  51 NW14      30.13S
MEDFORD        PTSUNNY   69  52  54 NW15G21   30.13F
MERRILL        MOSUNNY   71  52  51 NW10G21   30.10F
$$

WIZ029-030-035-036-043>047-282000-
CENTRAL WISCONSIN

CITY           SKY/WX    TMP DP  RH WIND       PRES   REMARKS
WAUSAU         PTSUNNY   71  49  45 N13G26    30.09S
MOSINEE        PTSUNNY   72  50  46 NW14G20   30.12F
MARSHFIELD     PTSUNNY   72  50  45 NW15      30.12F
STEVENS POINT  PTSUNNY   70  50  48 NW12      30.11S
WAUPACA        PTSUNNY   74  49  39 NW17      30.08F
WAUTOMA        NOT AVBL
WISC RAPIDS    CLOUDY    72  49  44 NW14G24   30.12F
CAMP DOUGLAS   NOT AVBL
$$

WIZ011>013-019>022-031-037>040-048>050-282000-
NORTHEAST WISCONSIN

CITY           SKY/WX    TMP DP  RH WIND       PRES   REMARKS
ANTIGO         PTSUNNY   70  51  50 N14G22    30.10S
STURGEON BAY   SUNNY     64  46  52 W5        30.07F
GREEN BAY      PTSUNNY   71  53  52 W5        30.06F
MANITOWOC      NOT AVBL
APPLETON       PTSUNNY   70  52  52 NW9       30.09F
CLINTONVILLE   CLOUDY    72  48  43 NW13      30.06F
OSHKOSH        MOSUNNY   71  52  50 NW10      30.08F
$$

WIZ032>034-041-042-053>061-282000-
SOUTHWEST WISCONSIN

CITY           SKY/WX    TMP DP  RH WIND       PRES   REMARKS
LA CROSSE      CLOUDY    75  49  39 NW10      30.14F
SPARTA         CLOUDY    72  47  39 NW10      30.15F
VIROQUA        CLOUDY    69  51  51 NW10      30.17S
BOSCOBEL       PTSUNNY   74  49  41 N7        30.15F
PRAIRIE DU CHI PTSUNNY   72  45  37 N9        30.15F
PLATTEVILLE    PTSUNNY   70  49  48 N12       30.16S
$$

WIZ056-057-062-063-064-067-068-282000-
SOUTH CENTRAL WISCONSIN

CITY           SKY/WX    TMP DP  RH WIND       PRES   REMARKS
BARABOO/DELLS  CLOUDY    71  45  39 N12       30.12F
LONE ROCK      NOT AVBL
WATERTOWN      PTSUNNY   70  51  52 N10       30.10S
MADISON        MOSUNNY   72  48  42 N10G20    30.12S
MIDDLETON      MOCLDY    72  47  41 N12       30.13S
MONROE         CLOUDY    68  48  49 N12G20    30.13S
JANESVILLE     NOT AVBL
$$

WIZ051-052-058>065-066-070>072-282000-
SOUTHEAST WISCONSIN

CITY           SKY/WX    TMP DP  RH WIND       PRES   REMARKS
MILWAUKEE      PTSUNNY   65  51  60 NE13      30.09S
WAUKESHA       NOT AVBL
MILWAUKEE/TIMM PTSUNNY   68  46  45 NE9G20    30.09S
RACINE         SUNNY     66  50  56 NE14      30.11R
BURLINGTON     PTSUNNY   68  48  49 N10G17    30.09F
KENOSHA        PTSUNNY   69  51  52 N8        30.09S
FOND DU LAC    MOSUNNY   71  50  47 NW10G17   30.09F
SHEBOYGAN      SUNNY     65  50  58 NE7       30.08F
WEST BEND      MOSUNNY   66  46  48 NW13G20   30.09S
JUNEAU         PTSUNNY   68  46  44 NW12      30.11F
$$

LSZ147-162-282000-
LAKE SUPERIOR

STATION/POSITION TIME  TEMP    WIND        PRES    WAVE
                       AIR SEA DIR/SP/G            HT/PER
                 (UTC) (F)     (DEG/KT/KT) (MB)    (FT/S)
W MID LAKE BUOY  1750   49 44  240/  8/ 10 1019.3F   1
PORT WING        1840   67     270/  9/ 12 1020.3F
SAXON HARBOR     1800          310/  8/ 10 1020.3
$$

LMZ867-665-643>646-282000-
LAKE MICHIGAN

STATION/POSITION TIME  TEMP    WIND        PRES    WAVE
                       AIR SEA DIR/SP/G            HT/PER
                 (UTC) (F)     (DEG/KT/KT) (MB)    (FT/S)
N MID LAKE BUOY  1750   54 52  290/  4/  6 1017.3F   2/ 4
NORTHPORT PIER   1800   61     310/  5/  8 1017.9F
SISTER BAY       1710   63     350/  9/ 10   N/A
KEWAUNEE LAKESHO 1800   58      40/  2/  5 1019.5F
SHEBOYGAN LAKESH 1800   55      10/  7/  8 1019.5F
PORT WASHINGTON  1800   59      50/ 10/ 12 1019.6S
ATWATER BUOY     1800   61      30/ 14     1019.8F
MILWAUKEE LAKESH 1800   60      40/ 13/ 15   N/A
S MID LAKE BUOY  1750   56 60  340/ 21/ 25 1017.8R   8/ 8
KENOSHA   LAKESH 1800   60      30/ 18/ 20 1018.6F
$$

TC  - TEMPERATURE IN CELSIUS
VSB - VISIBILITY IN STATUTE MILES
WCI - WIND CHILL INDEX
HX  - HEAT INDEX



USA.gov is the U.S. government's official web portal to all federal, state and local government web resources and services.